Weather History for Bentonville, AR

Change the Weather History Date:

Wednesday, January 25, 2012

  Actual Average Record
Temperature  
Mean Temperature 44 °F -  
Max Temperature 48 °F 48 °F 75 °F (1950)
Min Temperature 39 °F 24 °F 2 °F (1979)
Degree Days  
Heating Degree Days 22    
Moisture  
Dew Point 38 °F    
Average Humidity 87    
Maximum Humidity 93    
Minimum Humidity 40    
Precipitation  
Precipitation 1.47 in - - ()
Sea Level Pressure  
Sea Level Pressure 30.00 in    
Wind  
Wind Speed 9 mph (ENE)    
Max Wind Speed 17 mph    
Max Gust Speed 22 mph    
Visibility 9 miles    
Events      
Averages and records for this station are not official NWS values.
T = Trace of Precipitation, MM = Missing Value Source: NWS Daily Summary

Daily Weather History Graph

Daily Weather History Graph

Search for Another Location

Airport:

Trip Planner

Search our weather history database for the weather conditions in past years. The results will help you decide how hot, cold, wet, or windy it might be!

Date:

Astronomy

Jan. 25, 2012 Rise Set
Actual Time 7:23 AM CST 5:35 PM CST
Civil Twilight 6:55 AM CST 6:02 PM CST
Nautical Twilight 6:24 AM CST 6:33 PM CST
Astronomical Twilight 5:54 AM CST 7:04 PM CST
Moon 8:28 AM CST (1/25) 8:22 PM CST (1/25)
Length of Visible Light 11h 06m
Length of Day
10h 11m
Waxing Crescent, 7% of the Moon is Illuminated
Jan 25
Waxing Crescent
Jan 30
First Quarter
Feb 7
Full
Feb 14
Last Quarter
Feb 21
New

Hourly Weather History & Observations

Time (CST) Temp. Windchill Dew Point Humidity Pressure Visibility Wind Dir Wind Speed Gust Speed Precip Events Conditions
12:15 AM 48.2 °F - 24.8 °F 40% 30.11 in 10.0 mi ESE 6.9 mph - N/A   Overcast
12:35 AM 48.2 °F - 26.6 °F 43% 30.11 in 10.0 mi SE 12.7 mph 18.4 mph N/A   Overcast
12:55 AM 44.6 °F 39.2 °F 32.0 °F 61% 30.10 in 10.0 mi ESE 10.4 mph - 0.03 in   Overcast
1:15 AM 42.8 °F 38.0 °F 35.6 °F 76% 30.09 in 10.0 mi East 8.1 mph - 0.07 in   Overcast
1:35 AM 41.0 °F 35.2 °F 35.6 °F 81% 30.09 in 9.0 mi East 9.2 mph - 0.14 in   Overcast
1:55 AM 39.2 °F 34.2 °F 35.6 °F 87% 30.09 in 10.0 mi East 6.9 mph - 0.21 in   Overcast
2:35 AM 39.2 °F 33.6 °F 37.4 °F 93% 30.08 in 10.0 mi East 8.1 mph 16.1 mph 0.11 in   Overcast
2:55 AM 41.0 °F 38.0 °F 37.4 °F 87% 30.09 in 10.0 mi East 4.6 mph - 0.14 in   Overcast
3:15 AM 41.0 °F 37.1 °F 37.4 °F 87% 30.11 in 9.0 mi ESE 5.8 mph - 0.03 in   Overcast
3:35 AM 41.0 °F 37.1 °F 37.4 °F 87% 30.10 in 9.0 mi East 5.8 mph - 0.10 in   Mostly Cloudy
3:55 AM 41.0 °F 37.1 °F 37.4 °F 87% 30.10 in 4.0 mi East 5.8 mph - 0.24 in   Overcast
4:15 AM 39.2 °F 34.2 °F 37.4 °F 93% 30.09 in 5.0 mi ENE 6.9 mph - 0.13 in   Overcast
4:35 AM 39.2 °F 35.9 °F 37.4 °F 93% 30.09 in 7.0 mi NE 4.6 mph - 0.22 in   Overcast
4:55 AM 39.2 °F 35.0 °F 37.4 °F 93% 30.09 in 5.0 mi NE 5.8 mph - 0.35 in   Mostly Cloudy
5:15 AM 39.2 °F 35.9 °F 37.4 °F 93% 30.11 in 5.0 mi ENE 4.6 mph - 0.12 in   Mostly Cloudy
5:35 AM 39.2 °F 34.2 °F 37.4 °F 93% 30.10 in 5.0 mi East 6.9 mph - 0.24 in   Mostly Cloudy
6:15 AM 39.2 °F 32.5 °F 37.4 °F 93% 30.08 in 7.0 mi East 10.4 mph - 0.10 in   Mostly Cloudy
6:35 AM 39.2 °F 32.0 °F 37.4 °F 93% 30.05 in 9.0 mi East 11.5 mph - 0.14 in   Overcast
6:55 AM 39.2 °F 30.2 °F 37.4 °F 93% 30.01 in 10.0 mi East 17.3 mph 21.9 mph 0.16 in   Overcast
7:15 AM 39.2 °F 31.6 °F 37.4 °F 93% 30.02 in 10.0 mi East 12.7 mph - N/A   Overcast
7:35 AM 39.2 °F 32.0 °F 37.4 °F 93% 30.04 in 10.0 mi East 11.5 mph - N/A   Overcast
7:55 AM 39.2 °F 33.6 °F 37.4 °F 93% 30.04 in 10.0 mi ENE 8.1 mph 17.3 mph N/A   Mostly Cloudy
8:15 AM 41.0 °F 35.2 °F 37.4 °F 87% 30.06 in 10.0 mi East 9.2 mph - N/A   Overcast
8:35 AM 41.0 °F 36.4 °F 37.4 °F 87% 30.07 in 10.0 mi East 6.9 mph - N/A   Overcast
8:55 AM 41.0 °F 34.7 °F 37.4 °F 87% 30.06 in 10.0 mi ENE 10.4 mph - N/A   Overcast
9:15 AM 41.0 °F 34.7 °F 37.4 °F 87% 30.06 in 10.0 mi ENE 10.4 mph - N/A   Overcast
9:35 AM 41.0 °F 36.4 °F 37.4 °F 87% 30.07 in 10.0 mi ENE 6.9 mph - N/A   Overcast
9:55 AM 42.8 °F 36.6 °F 39.2 °F 87% 30.05 in 10.0 mi East 11.5 mph - N/A   Overcast
10:15 AM 42.8 °F 37.0 °F 39.2 °F 87% 30.05 in 10.0 mi East 10.4 mph 20.7 mph N/A   Overcast
10:35 AM 42.8 °F 37.0 °F 39.2 °F 87% 30.05 in 10.0 mi East 10.4 mph 17.3 mph N/A   Overcast
10:55 AM 42.8 °F 37.5 °F 39.2 °F 87% 30.05 in 10.0 mi East 9.2 mph - N/A   Overcast
11:15 AM 42.8 °F 37.5 °F 39.2 °F 87% 30.06 in 10.0 mi ENE 9.2 mph - N/A   Overcast
11:35 AM 42.8 °F 38.0 °F 39.2 °F 87% 30.05 in 7.0 mi NE 8.1 mph - 0.01 in   Overcast
11:55 AM 42.8 °F 38.0 °F 39.2 °F 87% 30.04 in 8.0 mi East 8.1 mph - 0.02 in   Overcast
12:15 PM 42.8 °F 37.0 °F 39.2 °F 87% 30.02 in 8.0 mi ENE 10.4 mph - N/A   Overcast
12:35 PM 42.8 °F 38.6 °F 39.2 °F 87% 30.00 in 9.0 mi ENE 6.9 mph - 0.01 in   Overcast
12:55 PM 42.8 °F 38.0 °F 39.2 °F 87% 29.98 in 10.0 mi NE 8.1 mph - 0.01 in   Overcast
1:15 PM 42.8 °F 38.6 °F 39.2 °F 87% 29.96 in 10.0 mi ENE 6.9 mph - N/A   Overcast
1:35 PM 42.8 °F 38.6 °F 39.2 °F 87% 29.95 in 10.0 mi ENE 6.9 mph - N/A   Overcast
1:55 PM 42.8 °F 38.0 °F 39.2 °F 87% 29.94 in 10.0 mi NE 8.1 mph - 0.01 in   Overcast
2:15 PM 42.8 °F 38.6 °F 39.2 °F 87% 29.93 in 10.0 mi NE 6.9 mph - N/A   Overcast
2:35 PM 42.8 °F 38.6 °F 39.2 °F 87% 29.90 in 10.0 mi NE 6.9 mph - 0.01 in   Overcast
2:55 PM 42.8 °F 36.6 °F 39.2 °F 87% 29.91 in 10.0 mi NE 11.5 mph - 0.02 in   Overcast
3:15 PM 42.8 °F 36.2 °F 39.2 °F 87% 29.90 in 9.0 mi NE 12.7 mph 16.1 mph 0.01 in   Overcast
3:35 PM 42.8 °F 38.0 °F 39.2 °F 87% 29.89 in 10.0 mi NE 8.1 mph - 0.02 in   Overcast
3:55 PM 42.8 °F 37.5 °F 39.2 °F 87% 29.89 in 10.0 mi NE 9.2 mph - 0.02 in   Overcast
4:15 PM 41.0 °F 35.8 °F 39.2 °F 93% 29.88 in 10.0 mi NE 8.1 mph - 0.01 in   Overcast
4:35 PM 41.0 °F 36.4 °F 37.4 °F 87% 29.88 in 10.0 mi NNE 6.9 mph - 0.01 in   Overcast
4:55 PM 41.0 °F 35.2 °F 37.4 °F 87% 29.88 in 10.0 mi North 9.2 mph - 0.01 in   Overcast
5:15 PM 41.0 °F 35.2 °F 37.4 °F 87% 29.90 in 9.0 mi North 9.2 mph - N/A   Overcast
5:35 PM 41.0 °F 35.8 °F 39.2 °F 93% 29.90 in 7.0 mi NE 8.1 mph - N/A   Overcast
5:55 PM 41.0 °F 34.3 °F 39.2 °F 93% 29.90 in 4.0 mi East 11.5 mph - N/A   Overcast
6:15 PM 41.0 °F 32.8 °F 39.2 °F 93% 29.89 in 4.0 mi East 16.1 mph - 0.01 in   Overcast
6:35 PM 41.0 °F 34.3 °F 39.2 °F 93% 29.90 in 10.0 mi East 11.5 mph 18.4 mph 0.01 in   Overcast
6:55 PM 41.0 °F 33.1 °F 39.2 °F 93% 29.90 in 9.0 mi East 15.0 mph 19.6 mph 0.01 in   Overcast
7:15 PM 41.0 °F 32.5 °F 39.2 °F 93% 29.89 in 9.0 mi East 17.3 mph - N/A   Overcast
7:35 PM 41.0 °F 35.2 °F 39.2 °F 93% 29.89 in 10.0 mi East 9.2 mph 17.3 mph N/A   Overcast
7:55 PM 42.8 °F 37.0 °F 39.2 °F 87% 29.89 in 10.0 mi East 10.4 mph 16.1 mph N/A   Overcast
8:15 PM 42.8 °F 37.5 °F 37.4 °F 81% 29.89 in 10.0 mi ESE 9.2 mph - N/A   Overcast
8:35 PM 42.8 °F 38.6 °F 37.4 °F 81% 29.90 in 10.0 mi East 6.9 mph - N/A   Overcast
9:15 PM 42.8 °F 39.3 °F 39.2 °F 87% 29.90 in 10.0 mi NE 5.8 mph - N/A   Overcast
9:35 PM 41.0 °F 38.0 °F 39.2 °F 93% 29.89 in 10.0 mi North 4.6 mph - N/A   Overcast
9:55 PM 41.0 °F 38.0 °F 39.2 °F 93% 29.87 in 10.0 mi NNE 4.6 mph - N/A   Overcast
10:35 PM 41.0 °F 36.4 °F 39.2 °F 93% 29.87 in 10.0 mi ENE 6.9 mph - N/A   Overcast
10:55 PM 41.0 °F 36.4 °F 39.2 °F 93% 29.87 in 10.0 mi NE 6.9 mph - N/A   Overcast
11:15 PM 41.0 °F 38.0 °F 39.2 °F 93% 29.87 in 10.0 mi ENE 4.6 mph - N/A   Overcast
11:35 PM 41.0 °F 37.1 °F 37.4 °F 87% 29.86 in 10.0 mi ENE 5.8 mph - N/A   Overcast
11:55 PM 41.0 °F 39.0 °F 37.4 °F 87% 29.87 in 10.0 mi NNE 3.5 mph - N/A   Overcast